Location: Barcelona
(41.3830°N, 2.1830°E)
Time: 13:07:16
(UTC+01:00)

ISS - Pass Details

Date: 03 December 2019
Orbit: 411 x 421 km, 51.6° (Epoch: 11 December)

Event Time Altitude Azimuth Distance (km) Brightness Sun altitude
Rises 19:12:19 0° 308° (NW) 2,361 0.6 -20.1°
Reaches altitude 10° 19:14:51 10° 328° (NNW) 1,499 -0.7 -20.6°
Enters shadow 19:16:02 15° 346° (NNW) 1,212 -1.4 -20.8°
